Wind_Speed
16 17 17 17 18 18 18 19 20 20 21 21 22 22 23 23 23 23 22 22 22 22 23 23 23 23 23 23 23 23 23 23 23 23 23 23 23 23
20 20 20 21 21 22 22 23 24 24 25 25 25 26 26 26 26 27 27 26 26 26 26 26 26 26 27 27 27 27 27 26 26 26 26 26 25 25
22 23 24 24 24 25 26 27 27 28 28 29 29 29 30 30 30 31 31 30 30 30 30 30 30 31 30 30 30 30 30 30 30 30 30 29 29 29
24 25 26 27 28 28 29 30 31 31 32 32 33 33 33 34 34 34 34 34 34 34 34 34 34 34 35 34 35 35 35 35 34 34 34 34 33 33
28 29 29 30 31 32 32 32 33 34 35 35 36 37 37 38 38 38 38 37 37 38 38 38 38 38 38 38 38 38 38 38 38 38 38 37 37 37
30 31 32 33 34 35 35 36 37 38 38 38 39 40 40 41 41 42 42 42 42 42 42 42 42 41 41 41 41 41 41 41 41 41 40 40 40 40
32 34 35 35 37 37 38 39 40 41 41 42 42 43 43 43 43 44 44 44 45 44 44 44 45 44 44 44 44 44 44 44 43 43 43 43 43 43
34 35 37 37 38 39 40 41 43 44 44 45 45 45 45 46 46 47 47 48 47 46 46 46 47 47 47 47 47 46 46 47 47 47 47 46 46 46
36 37 39 39 41 42 43 44 45 46 47 48 48 47 47 48 48 49 49 49 48 49 50 48 49 50 50 50 50 50 50 51 51 51 51 51 51 50
39 40 41 42 43 44 46 46 47 47 47 48 49 50 51 51 52 52 53 53 52 52 53 53 52 53 54 54 54 54 55 56 56 55 55 55 54 54
42 43 44 45 46 47 48 48 49 49 50 50 50 51 52 52 53 54 54 55 54 54 55 55 54 55 55 55 55 56 56 57 58 58 57 57 57 57
44 45 45 46 48 49 51 51 52 52 53 53 53 54 55 55 55 56 55 55 56 56 56 57 57 57 57 57 57 58 58 59 59 59 59 59 60 60
46 47 48 49 50 51 52 53 53 54 54 55 56 57 57 58 58 57 57 58 58 57 58 59 59 59 60 60 60 60 60 61 61 61 61 61 62 62
48 49 50 51 53 54 54 55 55 56 56 56 57 57 58 58 59 59 60 60 60 60 61 62 62 63 63 63 62 62 62 62 62 62 62 63 63 63
51 52 53 53 54 55 55 56 56 56 57 57 58 58 59 60 60 61 61 62 62 63 63 63 63 64 64 63 62 62 63 63 63 64 64 64 64 64
53 54 55 55 55 56 56 56 56 57 57 58 59 59 60 60 61 61 62 62 62 62 62 62 62 62 63 63 62 62 62 62 62 63 64 64 64 65
54 54 55 55 55 56 56 56 57 57 57 57 58 58 59 59 60 60 60 60 59 59 58 59 59 59 59 59 59 60 61 61 61 61 61 62 62 63
54 55 55 55 55 55 55 55 56 56 56 56 56 56 56 55 55 55 55 54 54 54 54 54 54 55 55 54 55 56 56 56 57 57 57 57 56 57
54 54 54 54 53 53 53 53 52 52 52 51 50 50 50 49 49 48 48 48 48 48 48 48 48 48 47 46 46 48 49 49 49 49 50 50 51 51
53 52 52 51 50 50 49 48 47 46 46 45 44 43 43 42 42 41 41 41 41 40 40 40 40 40 40 39 39 40 43 44 44 44 44 45 45 45
50 49 48 47 47 46 45 44 43 41 40 39 39 38 37 36 36 36 36 36 35 35 34 34 35 35 35 35 35 35 36 38 38 39 39 39 40 40
45 45 44 43 42 41 40 38 37 36 35 35 34 33 32 32 31 31 30 30 30 30 29 29 30 31 32 32 32 32 32 33 34 35 35 35 35 35
41 40 40 39 37 36 35 34 33 32 31 29 29 28 28 27 27 27 27 27 26 26 25 26 27 28 29 29 29 29 29 29 30 30 30 31 31 31
Wind_Direction
258 258 261 264 267 269 271 273 275 277 277 277 277 277 278 278 279 279 279 279 279 279 277 277 277 277 276 276 275 275 275 274 274 274 274 273 273 272
260 261 262 265 268 270 272 274 275 276 277 278 277 277 277 277 277 277 277 277 277 276 276 276 275 275 275 274 274 274 274 273 273 273 273 272 272 271
264 265 266 267 269 271 273 273 274 276 277 277 278 277 277 276 276 276 277 277 277 276 275 275 275 275 274 274 274 273 273 272 272 272 272 272 271 270
267 268 270 271 272 273 275 275 275 276 276 277 278 278 277 276 276 276 276 276 276 276 276 275 275 275 274 274 273 273 272 271 271 271 271 271 270 270
270 271 272 273 273 274 275 276 276 277 277 276 277 277 276 276 275 275 275 275 276 277 277 276 276 275 274 274 273 272 271 271 270 270 270 270 270 269
273 273 274 274 275 275 275 276 276 276 276 277 277 277 276 275 274 274 274 275 275 276 276 276 275 275 274 274 274 273 272 271 271 270 270 270 269 269
276 276 276 276 276 276 276 276 277 277 276 277 276 277 276 275 274 274 274 275 275 275 275 275 274 274 273 273 273 273 272 272 271 271 271 270 269 269
277 277 278 279 278 278 278 279 279 277 277 277 276 276 276 275 274 274 274 274 274 273 273 273 273 274 274 273 272 272 272 272 271 270 270 269 269 268
281 281 281 281 281 281 280 281 280 279 278 277 277 277 276 275 275 275 275 275 274 274 273 273 273 273 273 272 272 272 272 271 271 270 269 269 268 268
282 282 282 282 282 282 282 281 281 282 280 278 278 276 276 276 276 276 275 275 275 275 274 273 273 274 273 273 273 272 272 272 272 271 270 269 268 268
282 282 282 282 281 282 282 281 282 282 281 280 279 278 278 278 277 276 276 276 275 274 274 274 273 273 273 273 273 273 273 272 273 272 271 270 269 268
284 283 283 282 282 281 282 282 282 282 282 281 280 280 279 279 278 278 277 277 276 276 275 275 274 274 274 273 274 273 273 273 273 272 272 271 270 269
285 284 284 283 283 283 283 283 282 282 282 281 280 280 280 280 280 279 278 278 278 278 277 276 276 275 275 274 275 275 275 274 273 273 272 271 270 270
286 286 285 285 285 284 284 283 282 282 281 281 280 280 280 280 280 280 279 279 279 279 279 278 278 277 276 276 276 275 275 274 274 273 273 272 271 270
287 287 287 286 286 285 284 283 282 282 282 282 281 281 281 280 280 280 280 280 280 280 280 279 279 278 278 277 276 276 275 274 274 273 273 272 271 271
289 289 289 288 287 286 285 284 284 283 282 282 282 281 281 281 281 281 281 281 281 281 280 279 279 278 278 277 277 276 275 275 274 274 273 273 272 271
292 291 291 290 289 288 287 287 286 285 284 283 282 282 282 282 282 281 281 281 280 280 279 279 279 279 278 278 277 277 276 276 275 274 274 273 272 272
294 293 293 292 291 290 289 288 288 287 286 285 284 284 284 283 283 283 282 281 281 280 279 279 279 279 279 279 279 278 277 277 276 275 274 273 272 271
296 295 294 293 292 291 290 289 289 288 287 286 286 285 285 284 284 283 282 282 281 281 280 280 279 279 278 279 279 279 279 278 277 276 275 274 273 271
297 297 296 295 294 293 292 291 290 289 288 288 287 286 286 285 284 284 284 284 283 282 282 281 280 280 280 280 279 279 279 279 278 277 276 275 274 273
298 297 297 296 295 295 293 292 291 290 289 288 288 287 287 286 286 285 286 286 285 284 283 282 281 282 283 283 282 282 281 280 280 279 278 277 276 275
300 300 300 299 298 298 296 295 293 292 290 289 289 289 289 288 289 288 287 287 287 286 285 284 283 283 284 285 286 286 284 282 281 281 280 280 278 277
304 303 303 302 301 300 298 296 294 293 292 291 290 290 290 291 292 291 290 290 289 288 288 288 287 287 288 289 289 289 288 285 283 282 281 281 281 280
Height
5874 5874 5874 5874 5873 5873 5873 5872 5872 5871 5870 5869 5869 5868 5867 5866 5866 5865 5864 5864 5863 5863 5862 5861 5861 5860 5860 5859 5859 5859 5858 5858 5858 5858 5857 5857 5857 5857
5869 5869 5869 5869 5869 5868 5868 5867 5866 5866 5865 5864 5863 5862 5861 5860 5860 5859 5858 5857 5857 5856 5856 5855 5855 5854 5854 5853 5853 5853 5852 5852 5852 5852 5851 5851 5851 5851
5863 5864 5864 5863 5863 5862 5862 5861 5860 5859 5858 5857 5856 5855 5854 5853 5852 5852 5851 5850 5850 5849 5849 5848 5847 5847 5846 5846 5846 5845 5845 5845 5844 5844 5844 5844 5844 5844
5858 5858 5857 5857 5856 5856 5855 5854 5853 5852 5851 5849 5848 5847 5846 5845 5844 5843 5842 5842 5841 5841 5840 5839 5839 5838 5838 5837 5837 5836 5836 5836 5836 5836 5836 5836 5836 5836
5851 5850 5850 5849 5848 5848 5847 5846 5845 5843 5842 5841 5839 5838 5837 5836 5835 5834 5833 5832 5831 5830 5830 5829 5829 5828 5828 5827 5827 5826 5826 5826 5826 5826 5826 5826 5826 5826
5843 5842 5841 5841 5840 5839 5837 5836 5835 5834 5833 5831 5830 5828 5827 5825 5824 5823 5822 5822 5821 5819 5818 5818 5817 5817 5817 5816 5816 5815 5815 5815 5815 5815 5815 5815 5815 5816
5835 5834 5833 5832 5830 5829 5828 5826 5825 5823 5822 5821 5819 5817 5816 5814 5813 5812 5810 5810 5809 5807 5806 5805 5804 5804 5804 5804 5804 5803 5803 5802 5803 5803 5803 5803 5803 5804
5825 5824 5823 5821 5820 5818 5817 5815 5813 5812 5810 5808 5807 5806 5804 5802 5801 5799 5798 5797 5797 5796 5793 5793 5791 5791 5791 5790 5790 5790 5790 5789 5789 5789 5789 5790 5790 5791
5816 5814 5812 5810 5808 5807 5804 5802 5800 5798 5797 5795 5794 5793 5790 5789 5787 5786 5784 5783 5783 5781 5779 5779 5778 5776 5776 5775 5775 5776 5775 5774 5774 5774 5775 5775 5776 5776
5806 5804 5801 5799 5797 5795 5792 5790 5788 5785 5784 5781 5780 5778 5776 5774 5773 5771 5769 5768 5767 5766 5764 5763 5763 5761 5760 5759 5759 5759 5759 5758 5758 5758 5758 5759 5760 5760
5795 5793 5790 5788 5785 5782 5780 5777 5774 5772 5769 5767 5765 5763 5761 5759 5757 5755 5753 5752 5752 5751 5748 5746 5746 5745 5744 5744 5743 5742 5742 5741 5740 5740 5740 5741 5742 5742
5783 5781 5778 5775 5772 5769 5766 5763 5760 5757 5755 5752 5750 5747 5745 5743 5741 5739 5737 5736 5735 5734 5732 5729 5729 5727 5727 5727 5725 5724 5723 5723 5723 5723 5722 5722 5722 5723
5771 5768 5765 5762 5758 5755 5752 5748 5745 5742 5739 5736 5734 5731 5728 5726 5724 5721 5720 5718 5717 5716 5713 5711 5710 5709 5708 5709 5708 5706 5704 5704 5703 5703 5703 5703 5703 5703
5757 5754 5750 5747 5743 5739 5736 5732 5729 5726 5723 5719 5716 5714 5711 5708 5706 5703 5701 5699 5698 5697 5694 5692 5691 5689 5688 5688 5688 5686 5684 5684 5683 5683 5683 5683 5683 5683
5743 5739 5735 5730 5727 5723 5719 5715 5712 5708 5705 5702 5699 5696 5693 5690 5688 5685 5682 5680 5679 5676 5674 5672 5670 5669 5667 5667 5667 5665 5664 5663 5661 5661 5662 5662 5662 5662
5728 5723 5718 5714 5709 5705 5702 5698 5694 5691 5687 5684 5680 5677 5674 5671 5668 5666 5663 5661 5659 5657 5653 5651 5649 5648 5647 5646 5645 5644 5642 5642 5641 5640 5639 5640 5640 5640
5711 5706 5702 5697 5692 5688 5683 5680 5676 5672 5669 5665 5662 5659 5656 5653 5650 5646 5644 5641 5639 5637 5635 5632 5629 5628 5627 5625 5624 5623 5621 5621 5620 5619 5618 5618 5619 5618
5695 5690 5685 5680 5675 5670 5666 5661 5657 5654 5650 5646 5643 5640 5637 5634 5631 5628 5625 5622 5620 5618 5616 5613 5611 5609 5608 5607 5605 5603 5602 5600 5599 5598 5597 5597 5598 5598
5679 5674 5668 5663 5658 5653 5648 5644 5640 5636 5632 5628 5625 5622 5619 5616 5613 5611 5608 5606 5603 5601 5599 5597 5595 5593 5592 5592 5590 5585 5583 5582 5581 5580 5579 5578 5578 5578
5663 5657 5652 5647 5642 5637 5632 5628 5624 5620 5616 5613 5610 5607 5604 5601 5599 5596 5594 5591 5589 5587 5585 5583 5580 5578 5577 5576 5575 5573 5568 5566 5565 5564 5563 5561 5560 5560
5647 5642 5637 5632 5627 5622 5618 5614 5610 5606 5603 5600 5597 5594 5592 5589 5587 5584 5582 5579 5577 5574 5573 5571 5568 5566 5564 5563 5562 5560 5556 5553 5551 5549 5548 5547 5546 5545
5634 5628 5623 5618 5613 5609 5604 5601 5597 5594 5591 5588 5586 5583 5581 5578 5576 5573 5571 5568 5566 5564 5562 5560 5558 5556 5554 5551 5549 5547 5545 5542 5540 5537 5536 5534 5532 5531
5622 5616 5611 5606 5602 5597 5593 5590 5587 5584 5581 5578 5576 5574 5571 5569 5567 5564 5562 5559 5557 5555 5552 5550 5548 5546 5544 5541 5539 5537 5534 5532 5529 5528 5526 5524 5522 5521